[[{"header":{"parameterUnit":"m.s-1","parameterCategory":1,"la1":30.2991,"la2":30.254,"lo1":-89.0895,"lo2":-89.0444,"dy":0.0017,"dx":0.0017,"nx":28,"ny":28,"refTime":"2025-03-31T09:00:00:Z","depth":0,"parameterNumber":2,"parameterNumberName":"U-component_of_WINDS"},"data":[0,0,0,0,0,0,0,0,0,0,0,0,0,0,0,0,0,0,0,0,0,0,0,0,0,0,0,0,0,0,0,0,0,0,0,0,0,0,0,0,0,0,0,0,0,0,0,0,0,0,0,0,0,0,0,0,0,0,-4.5267,-4.5263,0,-4.4915,-4.4911,-4.4907,-4.4774,-4.4775,-4.4776,-4.4777,-4.4392,-4.4381,-4.4369,0,0,0,0,0,0,0,0,0,0,0,0,0,-4.5794,-4.5786,-4.5267,-4.5263,-4.5259,-4.4916,-4.4911,-4.4906,-4.4774,-4.4775,-4.4777,-4.4778,-4.4395,-4.4382,-4.4368,0,0,0,0,0,0,0,0,0,0,0,0,0,-4.5516,-4.5783,-4.5268,-4.5152,-4.5138,-4.4917,-4.4911,-4.4905,-4.4774,-4.4775,-4.4777,-4.4779,-4.44,-4.4383,-4.4367,-4.4227,0,0,-4.4315,-4.4307,0,0,0,0,0,0,0,0,-4.5532,-4.5497,-4.5173,-4.516,-4.5144,-4.4891,-4.4955,-4.4677,-4.4773,-4.4911,-4.4777,-4.4779,-4.4555,-4.4525,-4.4454,-4.4209,-4.4193,-4.4313,-4.4303,-4.4295,-4.4291,0,0,0,0,0,0,0,-4.5551,-4.5511,-4.5127,-4.5169,-4.515,-4.5107,-4.507,-4.4902,-4.4726,-4.4899,-4.4889,-4.485,-4.4547,-4.4471,-4.4444,-4.4187,-4.4314,-4.4298,-4.4288,-4.4281,-4.3798,-4.3795,0,0,0,0,0,0,-4.5594,-4.5528,-4.5138,-4.5117,-4.5347,-4.5097,-4.5054,-4.497,-4.4728,-4.4694,-4.4849,-4.4846,-4.4499,-4.4464,-4.443,-4.4245,-4.4296,-4.428,-4.427,-4.38,-4.3797,-4.3794,0,0,0,0,0,0,-4.5606,-4.5561,-4.5152,-4.5319,-4.5264,-4.5086,-4.4992,-4.4962,-4.4887,-4.4691,-4.4656,-4.4807,-4.4499,-4.4454,-4.4278,-4.423,-4.4272,-4.4257,-4.3803,-4.3799,-4.3796,-4.3879,0,0,0,0,0,0,-4.5622,-4.5566,-4.5519,-4.532,-4.5256,-4.5016,-4.4989,-4.4954,-4.4861,-4.4853,-4.4642,-4.4608,-4.4497,-4.4304,-4.4261,-4.4207,-4.4243,-4.3807,-4.3802,-4.3797,-4.3879,-4.3878,-4.3877,0,0,0,0,0,-4.5641,-4.5553,-4.5517,-4.5471,-4.5195,-4.5014,-4.4976,-4.4858,-4.4858,-4.4803,-4.4676,-4.4615,-4.4243,-4.4287,-4.4238,-4.4178,-4.3809,-4.3803,-4.3797,-4.388,-4.3878,-4.3877,0,0,0,0,0,0,-4.5744,-4.5525,-4.5483,-4.533,-4.5193,-4.4992,-4.4921,-4.4862,-4.4715,-4.4712,-4.4563,-4.4516,-4.435,-4.4246,-4.43,-4.4025,-4.4021,-4.4005,-4.41,-4.4097,-4.4096,-4.4123,-4.4229,0,0,0,0,0,-4.575,-4.5631,-4.5442,-4.5324,-4.5258,-4.5102,-4.5018,-4.4939,-4.4787,-4.4725,-4.4586,-4.4433,-4.428,-4.4183,-4.4032,-4.3863,-4.3809,-4.3796,-4.3795,-4.3795,-4.3782,-4.3675,-4.3664,-4.3775,-4.3775,-4.3775,0,0,-4.5759,-4.5624,-4.5557,-4.5341,-4.5225,-4.5094,-4.5053,-4.4918,-4.4816,-4.4702,-4.4529,-4.442,-4.4237,-4.4063,-4.3978,-4.3971,-4.3739,-4.3788,-4.3789,-4.3775,-4.3668,-4.3657,-4.3648,-4.3771,-4.3771,-4.3772,0,0,-4.5709,-4.5599,-4.5486,-4.5371,-4.5198,-4.5093,-4.5066,-4.4873,-4.4798,-4.4624,-4.4532,-4.4403,-4.4147,-4.4019,-4.3921,-4.3814,-4.3748,-4.3768,-4.376,-4.3658,-4.3649,-4.3641,-4.3595,-4.3582,-4.3756,-4.3756,-4.3756,0,-4.574,-4.555,-4.5433,-4.5303,-4.5205,-4.5102,-4.4979,-4.487,-4.4653,-4.4584,-4.458,-4.4251,-4.4122,-4.3911,-4.3885,-4.3811,-4.3766,-4.3791,-4.3662,-4.3652,-4.3642,-4.3597,-4.3581,-4.3759,-4.3759,-4.3758,-4.3758,0,-4.5592,-4.546,-4.5387,-4.5189,-4.5082,-4.4957,-4.4811,-4.4715,-4.4643,-4.4536,-4.4351,-4.4192,-4.4004,-4.3948,-4.3875,-4.3724,-4.3723,-4.3693,-4.3685,-4.3637,-4.3591,-4.3574,-4.3764,-4.3762,-4.3761,-4.3761,0,0,-4.5601,-4.5337,-4.5311,-4.5216,-4.5014,-4.4904,-4.4767,-4.4591,-4.4508,-4.4359,-4.4235,-4.4017,-4.3985,-4.3873,-4.3782,-4.3693,-4.3609,-4.367,-4.3663,-4.366,-4.3422,-4.3445,-4.3428,-4.3565,-4.3561,-4.3558,-4.3436,0,-4.552,-4.5284,-4.5171,-4.4979,-4.4849,-4.4745,-4.4623,-4.448,-4.4374,-4.424,-4.4117,-4.3964,-4.3938,-4.3868,-4.3775,-4.364,-4.3558,-4.3647,-4.3437,-4.3431,-4.3484,-4.3406,-4.343,-4.3324,-4.3418,-4.3415,-4.3413,0,-4.5398,-4.5256,-4.5053,-4.486,-4.4801,-4.4697,-4.452,-4.4397,-4.4227,-4.4154,-4.4028,-4.3939,-4.3779,-4.3783,-4.3555,-4.3618,-4.3523,-4.3442,-4.3435,-4.3408,-4.3418,-4.3372,-4.3287,-4.327,-4.3385,-4.3387,-4.3389,0,-4.5418,-4.5175,-4.5021,-4.4942,-4.4715,-4.4642,-4.4541,-4.4375,-4.4273,-4.4115,-4.4045,-4.3868,-4.377,-4.363,-4.3491,-4.3509,-4.3272,-4.3267,-4.3199,-4.3202,-4.3153,-4.3157,-4.3048,-4.3099,-4.3099,-4.31,-4.31,0,-4.5339,-4.5218,-4.5026,-4.4931,-4.4787,-4.4653,-4.451,-4.44,-4.4251,-4.4124,-4.4019,-4.3899,-4.3726,-4.358,-4.3469,-4.3292,-4.3249,-4.3178,-4.3149,-4.3186,-4.3194,-4.312,-4.3122,-4.3095,-4.3096,-4.3097,-4.3098,0,-4.5339,-4.5207,-4.5031,-4.4829,-4.4775,-4.4677,-4.4499,-4.4395,-4.4283,-4.4122,-4.4075,-4.3894,-4.3717,-4.3566,-4.3331,-4.3255,-4.3069,-4.3037,-4.313,-4.3114,-4.3052,-4.3058,-4.2888,-4.2855,-4.2934,-4.2934,-4.2933,0,-4.5297,-4.5201,-4.499,-4.4901,-4.4805,-4.4662,-4.4558,-4.4417,-4.4311,-4.4106,-4.4025,-4.3842,-4.3689,-4.3408,-4.3248,-4.3065,-4.3024,-4.2977,-4.2995,-4.3032,-4.3016,-4.3022,-4.3007,-4.2975,-4.2975,-4.2975,-4.2975,0,-4.5233,-4.5171,-4.5031,-4.4865,-4.4745,-4.4606,-4.4462,-4.4392,-4.4221,-4.4105,-4.3927,-4.3808,-4.3569,-4.3384,-4.3182,-4.3066,-4.2987,-4.2971,-4.2944,-4.2979,-4.3034,-4.2997,-4.3123,-4.2975,-4.2975,-4.2975,-4.2975,-4.2975,-4.5206,-4.5114,-4.495,-4.4793,-4.4671,-4.4538,-4.443,-4.4303,-4.4155,-4.3955,-4.3877,-4.3692,-4.3512,-4.3235,-4.3117,-4.2963,-4.2951,-4.2914,-4.2903,-4.2896,-4.2898,-4.3062,-4.2925,-4.2925,-4.2925,-4.2925,-4.2925,0,-4.5133,-4.5022,-4.488,-4.4684,-4.4558,-4.4504,-4.4339,-4.4234,-4.4076,-4.3919,-4.377,-4.3559,-4.3377,-4.3202,-4.3009,-4.2917,-4.2876,-4.287,-4.2873,-4.2846,-4.2923,-4.2964,-4.2907,-4.2907,-4.2907,-4.2907,-4.2907,-4.2907,-4.5081,-4.492,-4.4837,-4.4608,-4.4493,-4.4319,-4.4228,-4.4099,-4.3973,-4.3745,-4.3597,-4.3486,-4.3317,-4.3109,-4.2936,-4.2888,-4.2818,-4.2822,-4.2763,-4.2838,-4.2842,-4.2845,-4.2882,-4.2809,-4.2809,-4.2697,-4.2696,-4.2696]},{"header":{"parameterUnit":"m.s-1","parameterCategory":1,"la1":30.2991,"la2":30.254,"lo1":-89.0895,"lo2":-89.0444,"dy":0.0017,"dx":0.0017,"nx":28,"ny":28,"refTime":"2025-03-31T09:00:00:Z","depth":0,"parameterNumber":3,"parameterNumberName":"V-component_of_WINDS"},"data":[0,0,0,0,0,0,0,0,0,0,0,0,0,0,0,0,0,0,0,0,0,0,0,0,0,0,0,0,0,0,0,0,0,0,0,0,0,0,0,0,0,0,0,0,0,0,0,0,0,0,0,0,0,0,0,0,0,0,0.4361,0.4357,0,0.3973,0.3968,0.3964,0.3899,0.3902,0.3906,0.3909,0.3493,0.3479,0.3465,0,0,0,0,0,0,0,0,0,0,0,0,0,0.5029,0.5017,0.4362,0.4357,0.4352,0.3974,0.3968,0.3963,0.3898,0.3902,0.3906,0.391,0.3498,0.3481,0.3464,0,0,0,0,0,0,0,0,0,0,0,0,0,0.4699,0.5013,0.4362,0.4274,0.4263,0.3975,0.3968,0.3961,0.3897,0.3902,0.3907,0.3912,0.3503,0.3483,0.3462,0.3229,0,0,0.3396,0.3387,0,0,0,0,0,0,0,0,0.4718,0.4675,0.4292,0.428,0.4266,0.399,0.4051,0.3715,0.3896,0.4035,0.3909,0.3915,0.3653,0.362,0.3535,0.3209,0.3191,0.3394,0.3382,0.3372,0.3366,0,0,0,0,0,0,0,0.4741,0.4691,0.4207,0.4287,0.4271,0.4248,0.4207,0.3987,0.382,0.4024,0.4018,0.3974,0.3647,0.3556,0.3525,0.3185,0.3395,0.3376,0.3363,0.3355,0.2642,0.2637,0,0,0,0,0,0,0.4782,0.471,0.4219,0.4196,0.451,0.4232,0.4186,0.4073,0.3822,0.3789,0.397,0.3972,0.359,0.355,0.351,0.3217,0.3373,0.3353,0.334,0.2649,0.2641,0.2635,0,0,0,0,0,0,0.4797,0.4739,0.4235,0.4451,0.4386,0.4215,0.4089,0.4063,0.3972,0.3782,0.375,0.3909,0.3592,0.354,0.3299,0.3201,0.3343,0.3324,0.2656,0.2646,0.2638,0.2631,0,0,0,0,0,0,0.4816,0.4745,0.4659,0.445,0.4374,0.4036,0.4083,0.4052,0.3938,0.3937,0.3716,0.3684,0.3592,0.3331,0.3278,0.3175,0.3307,0.2664,0.2652,0.2641,0.2639,0.2623,0.2609,0,0,0,0,0,0.484,0.4669,0.4655,0.4596,0.4265,0.4031,0.3987,0.389,0.393,0.3839,0.3716,0.3691,0.3222,0.3307,0.3246,0.3135,0.2669,0.2655,0.2642,0.2646,0.2626,0.2609,0,0,0,0,0,0,0.4865,0.4641,0.4622,0.438,0.4226,0.4021,0.3903,0.3872,0.3699,0.3704,0.3586,0.3536,0.33,0.3194,0.3293,0.2894,0.2948,0.2921,0.2972,0.2951,0.2937,0.2965,0.3289,0,0,0,0,0,0.4844,0.4679,0.4489,0.4294,0.4218,0.4074,0.3969,0.3908,0.374,0.3673,0.3533,0.3367,0.3181,0.3061,0.288,0.2625,0.2572,0.2518,0.2503,0.2492,0.2468,0.232,0.2292,0.2589,0.2589,0.259,0,0,0.4795,0.4652,0.4554,0.4295,0.4168,0.3994,0.4019,0.3834,0.3701,0.3643,0.3407,0.3299,0.3105,0.2855,0.2737,0.2759,0.2375,0.2474,0.2467,0.2449,0.2303,0.2275,0.225,0.258,0.2582,0.2583,0,0,0.4617,0.4496,0.4317,0.4191,0.4001,0.3906,0.3863,0.3662,0.3589,0.3353,0.3304,0.3142,0.2826,0.2689,0.2578,0.2347,0.2315,0.2291,0.221,0.2067,0.2043,0.2022,0.1934,0.1905,0.227,0.227,0.227,0,0.4579,0.432,0.4228,0.4045,0.3929,0.3875,0.3689,0.3569,0.3327,0.3245,0.3275,0.2876,0.2742,0.2457,0.2401,0.2315,0.2256,0.2314,0.2056,0.2033,0.2011,0.1926,0.1894,0.2268,0.2268,0.2268,0.2268,0,0.428,0.4101,0.3979,0.3752,0.3623,0.344,0.3313,0.3193,0.3143,0.3043,0.2799,0.2637,0.2421,0.235,0.2297,0.2055,0.2074,0.2081,0.2131,0.1983,0.19,0.1868,0.2265,0.2266,0.2266,0.2267,0,0,0.4104,0.383,0.3786,0.3681,0.3467,0.3323,0.3135,0.2929,0.2825,0.266,0.2494,0.2229,0.2234,0.2108,0.2039,0.1915,0.1736,0.1936,0.1929,0.19,0.1452,0.1445,0.1409,0.1716,0.1709,0.1704,0.1467,0,0.3897,0.3566,0.3476,0.3192,0.3021,0.2967,0.2802,0.2649,0.2551,0.2387,0.2276,0.2088,0.2112,0.2035,0.191,0.1785,0.1643,0.1801,0.1553,0.1546,0.1599,0.1367,0.1359,0.1143,0.1435,0.1429,0.1426,0,0.361,0.3444,0.3145,0.2951,0.2875,0.273,0.2531,0.2378,0.2201,0.2138,0.1999,0.1941,0.1736,0.1802,0.1514,0.1623,0.1516,0.1439,0.1428,0.1397,0.1473,0.1324,0.1072,0.1038,0.1375,0.1379,0.1383,0,0.3506,0.3207,0.2988,0.29,0.2669,0.2567,0.2465,0.2294,0.2175,0.2,0.192,0.1723,0.1613,0.1458,0.1346,0.1406,0.1065,0.1123,0.1001,0.1003,0.0927,0.0933,0.065,0.0868,0.0869,0.0869,0.087,0,0.328,0.3098,0.2938,0.2803,0.2594,0.2492,0.2286,0.2181,0.203,0.1868,0.1808,0.1656,0.1521,0.1349,0.1261,0.1032,0.0984,0.0922,0.0899,0.0924,0.0931,0.0849,0.0858,0.0861,0.0863,0.0864,0.0866,0,0.3126,0.3013,0.277,0.2573,0.2518,0.2373,0.2201,0.2063,0.1965,0.1761,0.1707,0.1549,0.1344,0.1219,0.0958,0.0898,0.0644,0.063,0.0705,0.0693,0.0576,0.0587,0.0226,0.017,0.0432,0.0429,0.0428,0,0.2988,0.2847,0.2635,0.2525,0.2424,0.2247,0.2126,0.2018,0.1894,0.1682,0.1568,0.1361,0.1189,0.0863,0.072,0.0519,0.0496,0.0383,0.0464,0.0493,0.0487,0.0495,0.0477,0.0368,0.0366,0.0364,0.0362,0,0.2752,0.2703,0.2534,0.2344,0.2203,0.2047,0.1891,0.1803,0.1667,0.1529,0.1322,0.1189,0.0924,0.0716,0.0503,0.039,0.035,0.0339,0.0299,0.032,0.0367,0.0334,0.0662,0.0346,0.0348,0.0349,0.035,0.035,0.2597,0.2467,0.2298,0.211,0.1983,0.1839,0.17,0.1585,0.1412,0.1191,0.1137,0.0918,0.074,0.0451,0.0334,0.0157,0.0173,0.0116,0.0101,0.0087,0.0082,0.0401,0.0118,0.0118,0.0118,0.0118,0.0119,0,0.2353,0.2242,0.2071,0.1857,0.1708,0.1692,0.1518,0.1392,0.1202,0.1043,0.0876,0.0635,0.0433,0.0276,0.0067,-0.0045,-0.0069,-0.0097,-0.0093,-0.012,0.0082,0.0135,-0.0075,-0.0074,-0.0074,-0.0074,-0.0074,-0.0074,0.2208,0.1987,0.1918,0.163,0.1518,0.1307,0.1209,0.1073,0.0945,0.0681,0.0515,0.0416,0.0255,0.0035,-0.0154,-0.0195,-0.0272,-0.0298,-0.0344,-0.0154,-0.0133,-0.0113,-0.0064,-0.0312,-0.0312,-0.0531,-0.0533,-0.0534]}]]